Back to catalog

COSMOS 2251 DEB

AliveLEO
NORAD 34683·DEBRIS·🇷🇺 Russia

Launched Jun 16, 1993 from Plesetsk Cosmodrome

Loading…

Next Passes (next 24 hours)

TLE

FreshSource: Space-Track

Epoch: Sep 14, 2026, 01:20 UTC

1 34683U 93036YD  26257.05606925  .00003303  00000-0  59043-3 0  9993
2 34683  74.0258 281.5376 0020807 317.5150  72.0561 14.67183342923838

Track COSMOS 2251 DEB in real time with AllMySat

Download on the App Store